Terminal Aerodrome Forecast
Issued by NWS

Home | Current Version | Previous Version | Text Only | Print | Product List | Glossary On
Versions: 1 2 3 4 5 6 7 8 9 10 11 12 13 14 15
159
FTUS44 KTSA 140923 AAA
TAFBVO
TAF AMD
KBVO 140923Z 1409/1506 14012KT P6SM BKN035
     FM141000 15011KT P6SM BKN025
     FM141200 15010KT P6SM BKN015
     FM141500 13006KT 4SM BR OVC007
     FM141800 33005KT P6SM OVC025
     FM142100 VRB03KT P6SM BKN250=

USA.gov is the U.S. government's official web portal to all federal, state and local government web resources and services.